Regional Weather Roundup
Issued by NWS

Home | Current Version | Previous Version | Text Only | Print | Product List | Glossary On
Versions: 1 2 3 4 5 6 7 8 9 10 11 12 13 14 15 16 17 18 19 20 21 22 23 24 25 26 27 28 29 30 31 32 33 34 35 36 37 38 39 40 41 42 43 44 45 46 47 48 49
000
ASUS45 KBOU 280807
RWRCO

WEATHER ROUNDUP FOR COLORADO
NATIONAL WEATHER SERVICE DENVER/BOULDER CO
200 AM MDT MON JUL 28 2014

NOTE: "FAIR" INDICATES FEW OR NO CLOUDS BELOW 12000 FEET WITH NO
SIGNIFICANT WEATHER AND/OR OBSTRUCTIONS TO VISIBILITY.

COZ001>005-013-030-031-280900-
...NORTHWEST COLORADO...

CITY           SKY/WX    TMP DP  RH WIND       PRES   REMARKS
CRAIG          PTCLDY    50  47  89 SE3       30.34S
HAYDEN         MOCLDY    64  41  42 E8        30.37S
MEEKER         MOCLDY    63  45  51 NE7       30.36R
MOUNT WERNER   NOT AVBL
STEAMBOAT SPGS PTCLDY    59  46  63 CALM      30.40S
WALDEN         CLEAR     50  43  76 SE6       30.51S
$$

COZ006>008-011-280900-
...WEST CENTRAL VALLEYS...

CITY           SKY/WX    TMP DP  RH WIND       PRES   REMARKS
GRAND JUNCTION CLOUDY    77  49  37 E3        30.27R
MONTROSE       MOCLDY    70  51  51 SE7       30.36S
EAGLE          MOCLDY    61  50  67 CALM      30.43R
RIFLE          CLOUDY    67  49  52 CALM      30.31R
DELTA          MOCLDY    73  54  50 CALM      30.31S
NUCLA          MOCLDY    70  50  49 NW5       30.41S
$$

COZ017>023-064>068-280900-
...SOUTHWEST COLORADO...

CITY           SKY/WX    TMP DP  RH WIND       PRES   REMARKS
DURANGO        CLOUDY    61  58  90 NE3       30.46F
CORTEZ         PTCLDY    65  59  81 SE3       30.39S
PAGOSA SPRINGS CLOUDY    58  55  89 CALM      30.55S
TELLURIDE      DRIZZLE   61  46  59 E3        30.59S
WOLF CREEK PAS NOT AVBL
$$

COZ009-010-012-014-032>034-037-058>063-280900-
...CENTRAL COLORADO...

CITY           SKY/WX    TMP DP  RH WIND       PRES   REMARKS
ASPEN          MOCLDY    58  44  60 SW3       30.48R
BUENA VISTA    MOCLDY    56  53  89 CALM      30.57F
COPPER MTN     MOCLDY    54  39  58 S21       30.81S
BERTHOUD PASS  FAIR      46  32  57 MISG      30.85F
COTTONWOOD PAS CLOUDY    54  48  82 CALM      30.68F
GUNNISON       CLOUDY    59  46  63 NE5       30.53S
KREMMLING      CLOUDY    59  45  58 SE3       30.48S
LEADVILLE      CLOUDY    49  46  90 CALM      30.68S
MONARCH PASS   MIX PCPN  45  43  93 E3        30.92S
SALIDA         CLOUDY   N/A N/A N/A CALM      30.62S
SUNLIGHT       MOCLDY    55  43  62 CALM      30.72F
WILKERSON PASS NOT AVBL
$$

COZ069>075-280900-
...SAN LUIS VALLEY/SANGRE DE CRISTO MOUNTAINS...

CITY           SKY/WX    TMP DP  RH WIND       PRES   REMARKS
ALAMOSA        LGT RAIN  59  55  87 S6        30.52R
LA VETA PASS   CLOUDY    50  46  87 E3        30.71R
SAGUACHE       DRIZZLE   57  52  82 NW7       30.53F
$$

COZ035-036-038>040-280900-
...NORTHERN COLORADO FRONT RANGE...

CITY           SKY/WX    TMP DP  RH WIND       PRES   REMARKS
DENVER INTL AP MOCLDY    67  54  63 S21G29    30.35F
DMNS CITY PARK   N/A     67  56  68 S5G16     30.34S
AURORA         PTCLDY    66  54  65 S17       30.37F
FRONT RANGE AP NOT AVBL
ERIE MUNI ARPT PTCLDY    62  55  76 CALM      30.33S
BOULDER MUN AP PTCLDY    64  55  72 W3        30.34S
CENTENNIAL     MOCLDY    65  52  62 S18G29    30.38F
BROOMFIELD     PTCLDY    61  54  77 W6        30.36F
FORT COLLINS   CLEAR     63  57  82 NE6       30.35S
LONGMONT       CLEAR     64  57  80 CALM      30.34F
$$

COZ041-046-047-076>085-087-088-280900-
...PIKES PEAK/PALMER DIVIDE AND SOUTHERN FOOTHILLS...

CITY           SKY/WX    TMP DP  RH WIND       PRES   REMARKS
COLO. SPRINGS  CLOUDY    60  56  86 S6        30.47F
A. F. ACADEMY  CLOUDY    58  57  99 S3        30.47F
ELLICOTT       CLOUDY    60  55  83 S15       30.42S
FALCON         CLOUDY    56  55  95 SW6       30.50F
FORT CARSON    CLOUDY    61  57  88 SW6       30.44F
LIMON          CLOUDY    63  57  81 S6        30.40F
MONUMENT HILL  CLOUDY    55  52  88 S18G25    30.46F
TRINIDAD       LGT RAIN  62  60  93 W8        30.45S
$$

COZ042>045-048>051-090-091-280900-
...NORTHEAST COLORADO...

CITY           SKY/WX    TMP DP  RH WIND       PRES   REMARKS
GREELEY ARPT   PTCLDY    63  55  77 E3        30.34S
AKRON          MOCLDY    63  48  58 SE6       30.35S
BURLINGTON     CLOUDY    65  53  65 S6        30.34F
WRAY             N/A     66  47  50 E5        30.32S
STERLING       MOCLDY    70  52  52 S3        30.32S
HOLYOKE        PTCLDY    61  54  77 E6        30.33S
FORT MORGAN    MOCLDY    67  56  67 S5        30.34F
$$

COZ086-089-092>099-280900-
...SOUTHEAST COLORADO...

CITY           SKY/WX    TMP DP  RH WIND       PRES   REMARKS
PUEBLO         LGT RAIN  64  64 100 SW6       30.37F
LA JUNTA       LGT RAIN  66  64  93 NW6       30.35F
LAMAR          CLOUDY    73  64  73 W3        30.30F
SPRINGFIELD      N/A     68  59  73 SW6       30.36R
$$


USA.gov is the U.S. government's official web portal to all federal, state and local government web resources and services.